Location: Caltech
(34.1382°N, 118.1253°W)
Time: 21:37:14
(UTC-07:00)

BREEZE M DEB (TANK) - Visible Passes

Search period start: 02 September 2014 00:00
Search period end: 12 September 2014 00:00
Orbit: 342 x 13824 km, 49.6° (Epoch: 31 August)

Date Brightness Start Highest point End Pass type
(mag) Time Alt. Az. Time Alt. Az. Time Alt. Az.
02 Sep 4.9 05:30:03 10° SSW 05:33:34 19° SE 05:35:43 10° E visible
04 Sep 5.4 04:58:38 10° S 05:01:55 16° SSE 05:04:00 10° ESE visible
04 Sep 10.3 18:44:28 10° WSW 18:52:48 11° SW 19:03:54 10° SW visible
06 Sep 5.7 04:27:37 10° S 04:30:09 13° SSE 04:32:04 10° ESE visible
08 Sep 6.1 03:58:24 11° SSE 03:58:24 11° SSE 03:59:43 10° SE visible
09 Sep 2.2 05:54:04 10° SW 05:58:08 78° NW 06:00:30 10° NE visible
11 Sep 2.6 05:23:42 18° SW 05:26:38 69° SE 05:29:05 10° NE visible
